Location: Asheville, NC
(35.6000°N, 82.5500°W)
Time: 06:33:53
(UTC-05:00)

AO-85 - Pass Details

Date: 14 February 2018
Orbit: 506 x 780 km, 64.8° (Epoch: 22 February)

Event Time Altitude Azimuth Distance (km) Brightness Sun altitude
Exits shadow 04:47:04 17° 124° (SE) 1,382 ? -31.2°
Maximum altitude 04:47:51 18° 109° (ESE) 1,352 ? -31.1°
Drops below altitude 10° 04:50:41 10° 65° (ENE) 1,844 ? -30.5°
Sets 04:53:31 0° 47° (NE) 2,797 ? -29.9°
